White Center, Washington, United States
Lat: 47.52N, Lon: 122.35W
Wx Zone: WAZ508
Local Info
Past Weather Observations for Today

NOTE: This archive is for the closest National Weather Service station to White Center. Information may differ from the station used for current weather conditions.

Click here for Long-term Archive

Time Weather Temperature Dewpoint Humidity Pressure Winds Precip Visibility
22:53
Partly Cloudy
61°F / 16°C 52°F / 11°C 72% 30.06 in
(1018 mb)
SSE 4.6 mph
(SSE 7 kph)
- 10SM
21:53
Clear
63°F / 17°C 54°F / 12°C 73% 30.06 in
(1018 mb)
Calm - 10SM
20:53
Partly Cloudy
66°F / 19°C 52°F / 11°C 60% 30.04 in
(1017 mb)
Calm - 10SM
19:53
Mostly Cloudy
68°F / 20°C 54°F / 12°C 60% 30.04 in
(1017 mb)
Calm 0.00 in
(0.00 mm)
10SM
18:53
Mostly Cloudy
70°F / 21°C 52°F / 11°C 53% 30.04 in
(1017 mb)
Calm - 10SM
17:53
Mostly Cloudy
72°F / 22°C 52°F / 11°C 50% 30.04 in
(1017 mb)
Calm - 10SM
16:53
Mostly Cloudy
72°F / 22°C 52°F / 11°C 50% 30.04 in
(1017 mb)
Calm - 10SM
15:53
Overcast
72°F / 22°C 50°F / 10°C 47% 30.04 in
(1017 mb)
Calm - 10SM
14:53
Overcast
72°F / 22°C 52°F / 11°C 50% 30.04 in
(1017 mb)
Variable 3.5 mph
(Variable 6 kph)
- 10SM
13:53
Mostly Cloudy
70°F / 21°C 52°F / 11°C 53% 30.06 in
(1018 mb)
SSE 4.6 mph
(SSE 7 kph)
- 10SM
12:53
Mostly Cloudy
70°F / 21°C 54°F / 12°C 57% 30.06 in
(1018 mb)
S 6.9 mph
(S 11 kph)
- 10SM
11:53
Mostly Cloudy
66°F / 19°C 54°F / 12°C 64% 30.06 in
(1018 mb)
SSW 4.6 mph
(SSW 7 kph)
- 10SM
10:24
Overcast
64°F / 18°C 54°F / 12°C 68% 30.06 in
(1018 mb)
SSW 5.8 mph
(SSW 9 kph)
- 10SM
09:53
Overcast
64°F / 18°C 55°F / 13°C 73% 30.06 in
(1018 mb)
SSE 3.5 mph
(SSE 6 kph)
- 10SM
09:50
Overcast
64°F / 18°C 55°F / 13°C 73% 30.06 in
(1018 mb)
Calm - 10SM
09:18
Overcast
63°F / 17°C 57°F / 14°C 83% 30.06 in
(1018 mb)
SSE 5.8 mph
(SSE 9 kph)
- 10SM
08:53
Overcast
63°F / 17°C 57°F / 14°C 83% 30.06 in
(1018 mb)
SE 5.8 mph
(SE 9 kph)
- 10SM
07:53
Overcast
Fog And Mist
61°F / 16°C 55°F / 13°C 83% 30.06 in
(1018 mb)
SE 5.8 mph
(SE 9 kph)
- 3SM
06:53
Overcast
Fog 1000 And Mist
59°F / 15°C 55°F / 13°C 88% 30.06 in
(1018 mb)
SE 4.6 mph
(SE 7 kph)
- 2 1/2SM
05:53
Overcast
Fog And Mist
59°F / 15°C 55°F / 13°C 88% 30.04 in
(1017 mb)
SE 6.9 mph
(SE 11 kph)
- 2 1/2SM
04:53
Overcast
Fog And Mist
59°F / 15°C 55°F / 13°C 88% 30.04 in
(1017 mb)
E 8.1 mph
(E 13 kph)
- 5SM
03:53
Overcast
Fog And Mist
61°F / 16°C 55°F / 13°C 83% 30.04 in
(1017 mb)
E 4.6 mph
(E 7 kph)
0.00 in
(0.00 mm)
5SM
03:43
Overcast
Light Rain
61°F / 16°C 55°F / 13°C 83% 30.04 in
(1017 mb)
SE 4.6 mph
(SE 7 kph)
0.00 in
(0.00 mm)
5SM
03:30
Overcast
Light Rain
61°F / 16°C 55°F / 13°C 83% 30.04 in
(1017 mb)
SSE 6.9 mph
(SSE 11 kph)
0.00 in
(0.00 mm)
5SM
03:15
Overcast
61°F / 16°C 55°F / 13°C 83% 30.04 in
(1017 mb)
SSE 3.5 mph
(SSE 6 kph)
- 9SM
02:53
Overcast
61°F / 16°C 55°F / 13°C 83% 30.01 in
(1016 mb)
SSE 4.6 mph
(SSE 7 kph)
- 9SM
01:53
Overcast
61°F / 16°C 55°F / 13°C 83% 30.01 in
(1016 mb)
SSE 6.9 mph
(SSE 11 kph)
- 10SM
00:53
Overcast
63°F / 17°C 55°F / 13°C 77% 30.01 in
(1016 mb)
SE 3.5 mph
(SE 6 kph)
- 10SM
Time Weather Temperature Dewpoint Humidity Pressure Winds Precip Visibility


Weather for websites

WeatherForYou.com, LLC is not responsible for any damages or problems caused by this service. Current weather conditions are obtained from the closest station including government and personal stations which may have varying degrees of accuracy. Weather forecasts are derived from the NOAA NDFD. Like all things, this site belongs to Jesus Christ... He just trusts me to maintain it. If you have any questions or comments email webmaster@weatherforyou.com

Copyright © 2014, WeatherForYou.com LLC. All rights reserved.